Rawlins, WY

2:00 AM MDT on April 26, 2018 (GMT -0600)
Rawlins Municipal

Weather History for KRWL - October, 2011

Change the Weather History Date:

Thursday, October 13, 2011

  Actual Average Record
Temperature  
Mean Temperature 51 °F 44 °F  
Max Temperature 63 °F 58 °F 74 °F (2015)
Min Temperature 38 °F 31 °F 11 °F (1969)
Degree Days  
Heating Degree Days 14 21  
Month to date heating degree days 214 238  
Since 1 July heating degree days 445 624  
Cooling Degree Days 0 0  
Month to date cooling degree days 0 0  
Year to date cooling degree days 242 186  
Moisture  
Dew Point 23 °F    
Average Humidity 35    
Maximum Humidity 48    
Minimum Humidity 21    
Precipitation  
Precipitation 0.00 in 0.03 in 0.69 in (1987)
Month to date precipitation 0.52 0.36  
Year to date precipitation 8.18 7.88  
Sea Level Pressure  
Sea Level Pressure 29.98 in    
Wind  
Wind Speed 18 mph (WSW)    
Max Wind Speed 35 mph    
Max Gust Speed 41 mph    
Visibility 10 miles    
Events      
T = Trace of Precipitation, MM = Missing Value Source: NWS Daily Summary

Daily Weather History Graph

Daily Weather History Graph

Search for Another Location

Airport or City:

Astronomy

Oct. 13, 2011 Rise Set
Actual Time 7:18 AM MDT 6:30 PM MDT
Civil Twilight 6:50 AM MDT 6:58 PM MDT
Nautical Twilight 6:18 AM MDT 7:31 PM MDT
Astronomical Twilight 5:46 AM MDT 8:03 PM MDT
Moon 7:05 PM MDT (10/13) 8:55 AM MDT (10/13)
Length of Visible Light 12h 08m
Length of Day
11h 12m
Full, 98% of the Moon is Illuminated
Oct 13
Full
Oct 19
Last Quarter
Oct 26
New
Nov 2
First Quarter
Nov 10
Full

Hourly Weather History & Observations

Time (MDT) Temp. Windchill Dew Point Humidity Pressure Visibility Wind Dir Wind Speed Gust Speed Precip Events Conditions
12:53 AM 41.0 °F - 19.0 °F 41% 30.08 in 10.0 mi Calm Calm - N/A   Clear
1:53 AM 39.0 °F 35.7 °F 21.0 °F 49% 30.07 in 10.0 mi Variable 4.6 mph - N/A   Clear
2:53 AM 39.9 °F 34.5 °F 21.9 °F 49% 30.06 in 10.0 mi WSW 8.1 mph - N/A   Clear
3:53 AM 39.9 °F 33.9 °F 21.9 °F 49% 30.05 in 10.0 mi SW 9.2 mph - N/A   Clear
4:53 AM 39.0 °F 33.4 °F 21.0 °F 49% 30.05 in 10.0 mi WSW 8.1 mph - N/A   Clear
5:53 AM 37.9 °F 29.6 °F 19.9 °F 48% 30.06 in 10.0 mi WSW 13.8 mph - N/A   Clear
6:53 AM 41.0 °F 32.2 °F 18.0 °F 40% 30.04 in 10.0 mi WSW 18.4 mph 27.6 mph N/A   Clear
7:53 AM 41.0 °F 31.1 °F 19.0 °F 41% 30.04 in 10.0 mi WSW 23.0 mph 29.9 mph N/A   Clear
8:53 AM 46.9 °F - 21.9 °F 37% 30.02 in 10.0 mi WSW 23.0 mph 33.4 mph N/A   Clear
9:53 AM 51.1 °F - 23.0 °F 33% 30.02 in 10.0 mi WSW 23.0 mph 31.1 mph N/A   Clear
10:53 AM 54.0 °F - 23.0 °F 30% 30.00 in 10.0 mi WSW 26.5 mph 36.8 mph N/A   Clear
11:53 AM 57.0 °F - 17.1 °F 21% 29.99 in 10.0 mi West 29.9 mph 39.1 mph N/A   Clear
12:53 PM 60.1 °F - 21.0 °F 22% 29.96 in 10.0 mi West 26.5 mph 35.7 mph N/A   Clear
1:53 PM 62.1 °F - 24.1 °F 23% 29.92 in 10.0 mi WSW 26.5 mph 35.7 mph N/A   Clear
2:53 PM 62.1 °F - 24.1 °F 23% 29.92 in 10.0 mi WSW 27.6 mph 41.4 mph N/A   Clear
3:53 PM 62.1 °F - 26.1 °F 25% 29.92 in 10.0 mi West 21.9 mph 29.9 mph N/A   Partly Cloudy
4:53 PM 61.0 °F - 25.0 °F 25% 29.92 in 10.0 mi West 17.3 mph 29.9 mph N/A   Clear
5:53 PM 60.1 °F - 25.0 °F 26% 29.92 in 10.0 mi West 21.9 mph 29.9 mph N/A   Clear
6:53 PM 57.9 °F - 27.0 °F 31% 29.92 in 10.0 mi West 19.6 mph 28.8 mph N/A   Partly Cloudy
7:53 PM 55.9 °F - 28.0 °F 34% 29.94 in 10.0 mi West 11.5 mph 20.7 mph N/A   Scattered Clouds
8:53 PM 53.1 °F - 28.0 °F 38% 29.94 in 10.0 mi SW 5.8 mph 17.3 mph N/A   Clear
9:53 PM 54.0 °F - 24.1 °F 31% 29.91 in 10.0 mi WSW 16.1 mph 27.6 mph N/A   Clear
10:53 PM 53.1 °F - 21.9 °F 30% 29.90 in 10.0 mi WSW 23.0 mph 29.9 mph N/A   Clear
11:53 PM 51.1 °F - 19.9 °F 29% 29.90 in 10.0 mi West 19.6 mph - N/A   Clear